Location: Bratislava
(0.0000°N, 17.1167°E)
Time: 04:49:44
(UTC+01:00)

FUSE - Pass Details

Date: 24 January 2021
Orbit: 742 x 756 km, 25.0° (Epoch: 04 March)

Event Time Altitude Azimuth Distance (km) Brightness Sun altitude
Rises 18:58:11 0° 296° (WNW) 3,166 7.9 -12.9°
Reaches altitude 10° 19:00:38 10° 296° (WNW) 2,242 7.1 -13.4°
Maximum altitude 19:05:58 87° 205° (SSW) 742 3.9 -14.7°
Enters shadow 19:10:46 13° 118° (ESE) 2,049 5.8 -15.8°
